User: anonymous   Login
Location: Coleman
(45.0650°N, 88.0340°W)
Time: 03:42:16
(UTC-05:00)
Language:

Iridium 97 - Orbit

View from above orbital plane
View from above orbital plane
View from above satellite
View from above satellite

Ground track
Ground track

The orbit data is extracted from the following two-line orbital elements,

1 27450U 02031A   16146.43781254  .00000013  00000-0 -23719-5 0  9998
2 27450  86.3947 121.0138 0002481  84.3759 275.7719 14.34214816734651
Epoch (UTC): 25 May 2016 10:30:27
Eccentricity: 0.0002481
inclination: 86.3947°
perigee height: 776 km
apogee height: 779 km
right ascension of ascending node: 121.0138°
argument of perigee: 84.3759°
revolutions per day: 14.34214816
mean anomaly at epoch: 275.7719°
orbit number at epoch: 73465

The dashed part of the orbit path shows where the satellite is in the earth's shadow,  

DLR